Location: Newark
(47.3000°N, 8.0500°E)
Time: 03:16:14
(UTC+00:00)

Tiangong 2 - Visible Passes

Search period start: 17 July 2019 00:00
Search period end: 27 July 2019 00:00
Orbit: 378 x 386 km, 42.8° (Epoch: 16 July)

Date Brightness Start Highest point End Pass type
(mag) Time Alt. Az. Time Alt. Az. Time Alt. Az.
17 Jul 2.8 21:14:48 10° WSW 21:16:58 19° SSW 21:16:58 19° SSW visible
18 Jul 2.4 20:14:18 10° WSW 20:16:58 26° SSW 20:19:08 13° SE visible
19 Jul 3.2 20:51:10 10° WSW 20:52:54 14° SSW 20:53:28 13° SSW visible
20 Jul 2.9 19:50:24 10° WSW 19:52:46 20° SSW 19:55:09 10° SSE visible
